Temperature
25 24 24 24 30 30 28 28 28 27 26 25 25 25 25 24 24 22 19 19 19 18 18 18 18 18 18 19 19 19 18 18 18 18 18 18 18 18 18 18 18 18 18 18 18 18 18 18 18
24 24 25 29 31 29 27 28 27 27 26 25 24 24 24 22 21 20 19 18 19 18 18 18 18 18 18 18 18 18 18 18 18 18 18 18 18 18 18 18 18 18 18 18 18 18 18 18 18
25 25 29 32 30 29 28 28 27 26 26 25 25 24 23 22 20 20 19 19 19 18 18 18 18 18 18 18 18 18 18 18 18 18 18 18 18 18 18 18 18 18 18 18 18 18 18 18 18
25 28 31 32 29 29 29 28 28 27 26 25 25 24 22 20 20 19 19 19 19 19 18 18 18 18 18 18 18 18 18 18 18 18 18 18 18 18 18 18 18 18 18 18 18 18 18 18 18
27 31 32 31 29 29 29 28 28 28 26 26 25 24 22 20 19 19 19 19 19 19 18 18 18 18 18 18 18 18 18 18 18 18 18 18 18 18 18 18 18 18 18 18 18 18 18 18 18
31 33 32 30 29 29 29 28 28 28 26 25 25 24 21 19 19 19 19 19 19 19 19 18 18 18 18 18 18 18 18 18 18 18 18 18 18 18 18 18 18 18 18 18 18 18 18 18 18
32 33 32 31 30 29 29 28 28 28 27 26 25 25 22 20 19 19 19 19 19 19 19 18 18 18 18 18 18 18 18 18 18 18 18 18 18 18 18 18 18 18 18 18 18 17 17 18 18
31 34 32 32 31 30 29 28 28 28 26 25 25 25 23 20 19 19 19 19 19 19 18 18 18 18 18 18 18 18 18 18 18 18 18 18 18 18 18 18 18 18 18 18 18 18 17 18 18
31 33 32 32 31 30 29 29 28 27 26 25 25 25 23 20 20 20 19 19 19 18 18 18 18 18 18 18 18 18 18 18 18 18 18 17 17 17 17 17 18 18 18 18 18 18 18 18 18
33 33 32 32 32 31 30 29 28 28 27 26 24 23 21 21 20 20 20 20 19 19 19 18 18 18 18 18 18 18 17 17 17 17 17 17 17 17 17 18 18 18 18 18 18 18 17 17 17
33 33 32 32 31 31 30 30 29 29 29 27 25 23 22 21 21 21 21 20 19 19 19 19 18 18 18 18 18 18 18 17 17 17 17 17 17 17 17 17 17 17 17 17 17 17 17 17 17
33 32 32 31 30 31 30 30 29 29 28 27 25 23 22 22 22 21 21 20 19 19 19 19 18 18 18 18 18 18 18 18 18 17 17 17 17 17 17 17 17 17 17 17 17 17 17 17 17
32 32 31 30 30 30 30 30 29 28 27 26 24 23 23 23 22 21 21 20 19 19 19 18 18 18 18 18 18 18 18 18 18 18 17 17 17 17 17 17 17 17 17 17 17 17 17 17 17
32 31 31 31 30 30 30 30 29 28 26 25 24 24 23 23 22 22 21 20 20 19 19 19 18 18 18 18 18 18 18 18 18 18 18 17 17 17 17 17 17 17 17 17 17 17 17 17 17
31 32 32 31 31 30 30 30 30 27 26 25 25 24 23 23 22 22 21 20 20 19 19 19 19 19 19 18 18 18 18 18 18 18 18 18 17 17 17 17 17 17 17 17 17 17 17 17 17
32 32 32 31 31 30 31 31 30 27 27 26 25 24 23 22 22 22 21 20 20 20 19 19 19 19 19 19 18 18 18 18 18 18 18 18 18 18 18 18 18 17 17 17 17 17 17 17 18
32 32 32 31 31 31 32 31 30 27 27 27 26 25 24 23 22 21 21 20 20 20 20 20 19 19 19 19 18 18 18 18 18 18 18 18 18 18 18 18 18 17 17 17 18 18 18 18 18
32 32 32 32 31 31 31 31 30 28 28 27 26 25 24 24 22 22 21 21 20 20 20 20 20 19 19 19 19 18 18 18 18 18 18 18 18 18 18 18 17 17 18 17 18 17 17 17 17
32 32 32 32 31 31 31 31 31 29 28 28 27 26 25 24 23 22 21 21 20 20 20 20 20 20 19 19 19 18 18 18 18 18 18 18 18 18 18 18 18 18 18 17 17 17 17 17 17
32 31 32 31 30 31 31 31 31 29 28 28 27 26 26 25 24 22 21 21 21 21 21 20 20 20 20 19 19 19 19 18 18 18 18 18 18 18 18 18 18 18 18 18 18 17 18 18 18
31 31 31 31 30 31 31 31 30 30 29 28 27 27 26 26 25 23 22 21 21 21 21 21 21 20 20 20 19 19 19 19 18 18 18 18 18 18 18 18 18 18 18 18 18 18 17 18 18
30 31 31 31 30 31 31 31 31 31 29 29 28 27 27 26 25 24 23 22 22 22 22 21 21 21 21 20 19 19 19 19 19 19 19 18 18 18 18 18 18 18 18 18 18 18 17 17 18
31 31 31 31 31 31 31 31 32 31 30 30 29 28 27 26 26 25 24 23 22 22 22 21 21 21 21 20 20 19 19 19 19 19 19 18 18 18 18 18 18 18 18 18 18 18 17 17 17
30 30 30 30 31 30 31 30 31 32 31 31 30 29 28 27 26 25 24 23 22 22 22 21 21 21 21 21 20 20 19 19 19 19 19 18 18 18 18 18 18 18 18 18 18 18 17 17 17
30 30 29 29 29 30 30 30 31 32 31 30 30 29 28 27 26 25 24 23 22 22 22 22 22 21 21 21 20 20 20 19 19 19 19 18 18 18 18 18 18 18 18 18 18 17 17 17 17
29 30 29 29 29 30 29 30 31 31 30 29 29 28 27 27 26 25 24 23 23 22 22 22 22 21 21 21 20 20 20 19 19 19 18 18 18 18 18 18 18 18 18 17 17 17 17 17 17
29 30 32 31 30 30 31 30 31 31 30 30 29 28 28 27 26 25 24 24 23 22 22 22 22 21 21 21 20 20 20 19 19 18 18 18 18 18 18 18 18 18 18 17 17 17 17 17 17
30 31 30 30 29 29 30 30 31 30 30 30 29 28 27 27 26 25 24 23 23 22 22 22 21 21 21 20 20 20 19 19 19 18 18 18 18 18 18 18 18 18 17 17 17 17 17 17 17
28 29 30 30 30 29 29 30 31 31 30 30 29 28 27 26 26 25 24 23 22 22 21 21 21 21 20 20 20 19 19 19 19 18 18 18 18 18 18 18 18 17 17 17 17 17 17 17 17
30 30 29 29 28 29 30 30 30 30 30 29 28 27 26 25 25 24 23 22 22 21 21 21 21 20 20 20 19 19 19 19 18 18 18 18 18 18 17 17 17 17 17 17 17 17 17 16 16
Wind_Speed
9 8 6 4 3 10 16 12 11 10 8 10 10 9 10 11 9 9 6 7 8 10 12 13 13 14 14 15 15 15 15 15 15 15 15 15 16 16 16 16 17 17 17 18 18 18 18 18 18
5 5 5 1 8 13 13 12 12 12 9 8 9 10 11 11 9 9 8 8 9 10 11 14 14 14 14 14 14 15 15 15 15 15 15 15 16 16 16 16 16 17 17 17 18 18 18 17 17
5 5 1 6 13 14 12 11 11 11 8 7 7 9 7 8 8 6 9 9 9 11 12 14 13 14 14 14 14 14 14 15 15 14 15 16 16 15 16 16 16 17 17 17 17 17 17 16 16
4 3 2 11 17 14 12 10 9 10 9 9 9 9 8 7 5 8 10 9 10 11 13 15 12 13 14 14 14 14 15 15 15 14 15 16 15 16 16 16 16 17 17 16 16 16 15 15 14
3 1 10 14 16 13 10 8 7 8 7 9 10 12 9 8 10 11 10 9 10 11 12 15 13 13 14 14 14 14 15 15 15 15 15 15 15 15 16 16 16 16 16 15 15 15 14 14 13
1 3 9 13 13 11 9 8 8 11 12 11 11 12 8 8 10 10 10 9 9 10 12 14 14 13 13 13 14 14 15 15 15 15 15 15 15 15 15 15 15 15 14 14 14 14 13 13 12
4 7 11 13 12 11 8 7 8 10 11 9 8 10 8 9 10 10 9 8 9 10 10 11 12 12 13 13 13 14 14 14 14 14 15 15 15 15 14 14 14 14 13 13 13 12 12 11 10
2 4 11 11 11 11 9 8 7 9 10 9 5 7 9 12 11 10 9 9 8 8 8 9 10 10 11 12 13 13 13 13 14 14 14 14 14 14 13 13 13 12 12 12 12 11 11 10 9
2 4 10 10 9 10 9 9 8 8 10 7 6 8 13 15 13 11 10 9 8 8 7 7 8 8 9 10 11 12 12 11 11 12 10 8 10 11 11 13 12 10 10 10 10 10 9 9 9
1 6 10 8 8 9 9 9 9 8 9 9 10 12 15 15 13 11 10 10 9 8 7 6 7 7 8 8 8 7 9 8 8 8 7 7 8 7 10 13 10 10 10 9 9 8 8 6 7
4 7 8 7 7 8 9 8 6 7 7 9 13 16 16 14 12 10 9 9 8 7 7 7 6 4 6 6 5 5 6 6 7 7 7 6 6 7 7 7 9 8 7 6 7 6 3 3 4
5 6 5 6 6 6 7 7 6 4 7 9 12 16 16 14 12 10 9 8 8 7 7 6 6 5 4 4 5 5 5 5 5 6 4 5 4 4 5 3 5 5 4 3 3 3 3 2 2
5 5 6 5 6 6 6 7 6 7 8 11 14 15 15 13 11 9 9 9 8 7 7 6 5 5 5 4 3 4 4 4 5 4 4 3 3 3 4 3 2 2 3 3 2 2 2 1 1
5 5 6 6 7 6 6 6 5 7 10 12 14 14 13 12 12 10 9 9 8 8 7 7 6 5 4 4 3 3 3 3 3 3 4 2 2 3 2 2 1 2 1 2 1 2 1 1 1
6 7 7 6 6 5 6 6 6 9 11 12 13 12 12 12 11 10 10 9 8 8 7 7 6 5 5 4 4 3 3 4 3 4 4 3 2 3 2 2 2 2 2 2 1 0 0 1 2
7 8 7 6 5 5 7 5 8 10 11 12 12 12 12 12 11 10 10 9 8 8 8 8 6 6 6 4 3 3 3 3 3 3 4 3 2 3 2 2 2 2 2 2 1 2 1 1 2
9 9 7 7 6 5 6 4 9 10 11 11 12 12 12 12 12 11 11 10 10 9 9 9 8 7 7 5 4 3 2 2 2 2 2 3 3 3 3 2 1 2 2 2 2 0 1 1 2
10 9 8 7 7 6 7 4 8 9 10 11 12 12 12 12 12 12 11 11 10 10 10 9 9 8 7 6 5 4 3 3 3 3 2 3 3 3 3 3 3 3 2 2 1 2 2 3 3
7 9 8 5 5 7 7 6 6 9 10 10 12 12 12 12 11 11 12 11 11 11 10 10 10 9 7 6 5 5 4 4 4 4 4 4 4 3 4 3 2 3 3 3 3 3 3 3 2
9 10 9 6 4 5 6 7 6 9 11 11 11 12 12 12 12 12 12 12 13 12 12 11 11 10 10 7 5 4 3 3 3 3 3 4 5 5 5 4 4 4 3 4 4 4 4 3 2
12 12 9 7 6 6 7 9 8 8 10 11 11 12 13 13 13 13 13 13 13 13 13 12 12 11 10 9 7 5 5 4 4 4 4 4 5 5 5 5 5 4 4 4 4 4 5 4 3
12 9 8 8 9 6 7 7 8 8 9 11 12 13 13 13 13 13 13 14 14 13 13 12 12 12 10 10 9 8 7 5 5 4 3 4 4 5 5 5 5 5 4 4 5 4 4 5 4
8 7 9 10 10 9 8 8 5 7 8 9 11 12 13 13 13 13 13 13 13 12 12 11 11 11 10 10 9 9 8 6 5 4 4 4 4 5 5 5 5 5 4 4 5 4 5 4 5
9 9 7 8 11 12 10 9 6 6 7 7 8 10 11 12 12 12 11 11 11 11 11 11 11 10 10 10 10 9 8 7 6 5 4 4 3 4 4 5 5 5 4 5 5 5 6 5 5
13 13 9 10 11 11 8 9 7 3 4 5 5 7 8 10 11 11 12 12 11 11 11 11 11 10 10 10 10 9 9 8 7 6 5 4 3 3 3 4 4 4 4 5 5 5 5 5 6
18 19 13 10 12 10 8 9 5 3 3 3 4 4 6 9 10 11 11 11 11 11 11 10 10 9 9 9 8 7 7 6 5 5 4 3 3 3 2 3 4 5 5 5 5 5 5 4 5
17 17 14 11 9 10 9 8 7 5 5 5 4 5 6 8 10 10 11 10 10 10 10 9 9 8 8 8 7 6 6 5 4 3 4 3 3 2 2 3 3 3 4 4 4 4 4 4 4
12 15 10 12 11 12 11 11 8 8 7 6 5 6 6 8 9 10 9 9 9 9 9 8 8 7 7 7 6 5 5 5 4 4 3 3 3 2 3 3 2 2 2 3 3 3 3 3 3
12 15 12 12 11 12 10 8 4 5 5 5 5 6 7 8 9 9 9 9 9 9 8 8 7 7 6 6 5 4 4 4 4 3 3 3 3 3 3 2 2 2 2 2 1 1 1 1 2
16 16 16 13 11 11 11 5 5 4 4 5 5 7 7 8 8 9 9 9 9 9 8 7 7 6 6 6 5 4 3 3 3 2 2 2 2 2 2 2 2 2 1 0 0 0 0 1 1
Wind_Direction
191 189 210 228 122 75 70 69 70 73 67 60 58 57 60 46 47 82 95 94 91 91 95 93 84 86 88 90 91 91 94 96 98 104 107 109 111 111 110 109 110 109 110 110 111 111 110 109 109
183 191 221 225 73 80 72 71 71 68 84 84 69 66 68 63 63 94 104 98 97 95 97 89 86 87 88 89 92 93 95 97 97 101 106 109 110 111 111 110 110 111 110 110 111 110 109 108 108
196 224 283 68 64 70 80 78 83 83 81 78 78 64 61 72 81 92 103 110 101 94 94 92 88 88 88 88 88 91 93 96 96 98 104 107 108 109 109 109 110 110 109 109 110 110 110 109 108
218 208 99 77 75 71 82 91 97 96 80 78 92 84 76 66 82 102 112 111 104 99 97 94 90 89 89 87 88 91 94 95 93 94 101 105 107 108 106 106 107 108 108 108 108 108 110 110 109
241 97 92 84 79 80 81 84 90 86 85 89 92 96 86 76 98 110 115 111 104 100 98 97 91 90 88 86 87 90 93 91 89 90 97 101 104 104 105 106 105 105 106 106 107 108 108 108 109
225 91 85 87 87 88 87 93 93 95 101 102 103 101 89 107 113 115 113 109 106 103 102 101 98 92 90 89 88 88 90 91 90 89 95 99 100 102 103 103 104 104 104 104 105 108 110 110 110
43 73 85 91 96 93 89 97 97 102 105 102 109 103 113 124 122 120 116 113 105 104 105 109 112 107 101 92 90 91 92 94 92 90 94 98 98 98 100 102 103 103 103 103 105 108 111 113 115
0 95 93 90 91 92 105 105 104 108 102 112 114 112 131 140 137 128 122 115 109 106 105 107 102 106 112 107 98 95 93 94 96 93 95 100 106 105 108 110 103 105 106 106 108 110 111 114 117
284 91 85 84 89 105 123 121 111 109 118 114 97 103 124 137 140 135 131 126 120 112 108 108 110 113 110 106 110 112 106 105 112 106 106 119 114 112 117 99 107 111 110 109 110 113 120 129 133
13 82 78 77 85 111 127 126 128 134 128 124 117 115 129 143 147 144 142 138 133 129 124 115 111 116 111 108 113 117 113 110 105 105 107 104 97 97 103 111 109 114 116 118 117 130 158 178 137
70 82 91 97 99 114 127 125 137 138 135 142 143 143 147 150 152 151 147 141 137 139 134 126 118 106 109 113 114 107 107 112 112 108 110 104 110 115 116 125 129 128 140 131 134 164 137 108 90
96 88 94 104 114 126 125 127 131 121 101 127 144 149 153 158 158 155 151 148 145 146 141 133 132 127 110 105 114 123 123 123 115 113 117 112 100 100 102 114 118 133 121 104 114 106 97 85 98
115 106 104 120 132 130 133 124 113 111 114 129 141 152 159 160 158 157 155 153 152 155 152 145 145 139 136 126 132 124 119 120 116 121 115 114 116 105 102 96 97 112 112 134 112 100 107 130 132
116 121 123 129 132 141 146 134 135 124 133 141 152 160 165 165 164 163 163 162 163 164 160 157 162 155 153 154 148 133 131 127 123 126 117 115 107 106 113 128 122 105 118 82 90 111 136 191 130
147 149 140 136 143 155 165 151 144 141 150 154 162 166 168 171 174 175 172 173 171 167 163 167 172 169 171 173 170 161 154 150 141 131 134 146 150 150 163 146 171 134 137 142 171 115 236 222 202
184 191 170 147 162 173 210 143 141 155 165 166 170 172 177 180 185 183 178 179 179 177 175 181 184 178 181 184 192 184 174 155 153 152 154 161 172 192 213 189 186 163 199 199 207 234 245 278 267
198 200 178 154 174 183 215 145 142 166 177 176 179 181 184 185 192 189 187 187 187 189 187 188 192 187 186 183 190 201 191 189 188 180 181 176 193 205 225 223 185 215 226 233 259 167 279 274 275
197 196 190 176 172 198 210 174 155 177 189 188 188 188 191 194 195 193 193 193 193 194 196 196 195 194 190 189 190 204 208 206 210 204 206 215 214 217 231 223 213 231 232 236 256 272 268 274 273
215 209 197 173 165 210 218 213 190 185 197 199 196 194 197 201 197 194 196 197 195 196 197 199 201 194 196 199 204 205 206 213 213 209 206 215 225 225 233 245 219 236 235 250 254 254 246 256 274
210 211 200 171 172 224 225 227 207 196 207 208 204 203 203 200 196 195 196 197 199 196 199 200 202 201 201 200 207 216 219 224 222 226 209 225 230 233 228 231 237 231 239 243 247 249 270 270 257
211 215 205 191 181 211 233 221 207 205 210 212 213 213 210 204 199 197 198 199 200 200 200 201 202 203 205 204 207 210 204 218 219 220 222 228 234 236 246 237 243 245 244 239 245 249 254 269 267
209 212 207 199 211 209 228 236 197 198 205 211 214 213 213 207 203 201 199 198 200 201 200 201 200 201 200 203 213 217 221 226 230 229 224 226 232 238 239 241 240 245 247 243 250 242 255 261 265
206 182 204 214 227 234 219 249 208 187 214 213 211 212 212 208 204 202 201 199 199 201 199 198 199 200 199 202 208 217 228 229 229 226 228 239 231 233 239 243 242 244 252 254 260 261 255 253 259
163 164 182 216 230 231 227 243 235 206 222 219 205 206 209 205 202 199 196 193 195 198 198 196 194 198 199 202 207 214 224 230 235 233 235 235 230 232 231 239 240 242 251 254 254 253 246 252 259
191 192 197 208 219 228 209 236 244 213 227 234 222 210 207 199 195 192 191 189 190 195 197 196 194 197 200 203 208 213 220 225 231 238 234 242 243 237 230 241 240 244 241 248 254 249 258 250 250
205 210 217 218 219 213 199 233 229 203 223 224 218 206 198 191 187 187 188 187 187 190 192 192 193 196 198 201 207 212 218 226 232 231 243 237 250 258 255 246 248 251 248 247 244 251 246 243 246
204 218 231 238 242 235 214 220 227 209 204 205 197 185 184 183 180 181 179 179 180 180 182 183 184 190 192 195 198 203 211 223 234 230 231 239 237 243 244 254 256 263 254 252 249 251 248 239 242
223 210 214 228 228 231 224 225 223 194 199 200 194 181 171 170 169 168 169 167 167 169 170 172 175 179 181 185 192 194 198 205 212 223 217 223 227 241 248 256 254 252 252 249 246 242 244 233 236
197 206 215 221 234 235 231 223 203 198 196 198 185 171 164 160 158 155 152 152 155 157 158 161 164 166 169 176 180 183 183 189 200 209 212 213 214 225 233 235 234 228 240 250 240 240 245 244 263
208 209 208 214 218 237 250 213 135 174 187 188 173 157 151 149 145 143 144 145 147 147 147 151 157 161 162 161 162 160 163 172 185 190 191 200 204 214 224 220 210 200 200 222 202 148 13 359 345
Height
1492 1491 1492 1493 1487 1491 1502 1503 1501 1504 1507 1511 1512 1511 1513 1515 1517 1528 1531 1530 1531 1530 1530 1529 1528 1528 1528 1527 1527 1527 1527 1528 1528 1529 1530 1531 1532 1533 1534 1535 1536 1537 1539 1540 1541 1543 1544 1545 1547
1494 1493 1494 1490 1486 1502 1510 1505 1506 1509 1513 1514 1515 1516 1517 1522 1526 1529 1531 1532 1533 1533 1533 1532 1531 1531 1531 1531 1531 1531 1531 1531 1532 1532 1533 1534 1535 1536 1537 1538 1539 1540 1542 1543 1544 1546 1547 1548 1550
1495 1495 1494 1487 1494 1504 1511 1508 1511 1513 1515 1516 1518 1520 1523 1528 1531 1532 1534 1534 1535 1536 1536 1534 1534 1534 1534 1534 1534 1534 1534 1535 1535 1535 1536 1537 1538 1539 1540 1541 1542 1543 1545 1546 1547 1548 1550 1552 1553
1497 1497 1492 1492 1503 1505 1506 1509 1512 1514 1517 1518 1519 1523 1529 1533 1534 1535 1536 1537 1538 1539 1539 1537 1537 1538 1537 1537 1538 1537 1538 1538 1538 1538 1539 1540 1541 1542 1543 1544 1545 1546 1548 1549 1550 1552 1553 1554 1556
1498 1493 1490 1499 1505 1507 1508 1511 1513 1514 1518 1520 1522 1526 1533 1536 1537 1537 1538 1540 1541 1542 1542 1541 1540 1540 1541 1541 1541 1541 1541 1542 1541 1541 1541 1543 1544 1545 1546 1547 1548 1550 1551 1552 1553 1555 1556 1557 1558
1496 1489 1494 1505 1510 1509 1511 1514 1514 1516 1521 1523 1525 1528 1536 1539 1540 1540 1541 1543 1544 1544 1545 1544 1543 1543 1544 1544 1544 1544 1544 1545 1545 1545 1545 1546 1546 1548 1549 1550 1551 1553 1554 1555 1556 1557 1559 1560 1561
1496 1491 1498 1502 1508 1510 1513 1515 1516 1518 1521 1525 1528 1530 1538 1541 1542 1543 1544 1545 1546 1547 1548 1548 1548 1547 1547 1547 1547 1548 1548 1548 1548 1548 1549 1549 1550 1551 1552 1553 1554 1555 1556 1558 1559 1560 1561 1562 1563
1499 1493 1498 1501 1506 1511 1515 1517 1519 1520 1525 1529 1530 1531 1537 1542 1543 1545 1546 1547 1548 1549 1550 1551 1551 1551 1551 1551 1550 1550 1551 1551 1551 1552 1552 1553 1554 1554 1555 1556 1557 1558 1559 1560 1561 1562 1564 1565 1565
1501 1495 1501 1502 1505 1511 1515 1518 1522 1524 1527 1530 1532 1534 1538 1542 1544 1546 1548 1549 1550 1551 1551 1553 1553 1554 1554 1555 1554 1554 1554 1554 1555 1555 1555 1556 1558 1559 1559 1559 1560 1561 1562 1563 1564 1565 1566 1567 1567
1499 1498 1503 1504 1505 1508 1514 1517 1521 1524 1527 1530 1534 1537 1540 1543 1545 1547 1549 1551 1552 1553 1554 1554 1555 1556 1557 1557 1557 1558 1558 1557 1558 1558 1559 1560 1560 1561 1562 1562 1562 1563 1564 1565 1566 1567 1568 1569 1571
1501 1501 1504 1507 1509 1511 1514 1518 1521 1521 1524 1529 1534 1538 1541 1544 1547 1549 1551 1552 1553 1554 1555 1556 1556 1557 1559 1559 1559 1560 1560 1560 1560 1560 1561 1562 1563 1564 1564 1565 1565 1566 1567 1568 1568 1570 1571 1572 1572
1504 1506 1507 1509 1512 1513 1515 1518 1521 1522 1526 1531 1535 1538 1542 1545 1547 1550 1552 1553 1554 1556 1557 1557 1557 1558 1558 1560 1561 1561 1562 1562 1563 1563 1564 1564 1565 1566 1567 1567 1568 1569 1569 1570 1571 1571 1572 1573 1573
1506 1507 1510 1512 1513 1515 1517 1519 1522 1525 1529 1533 1536 1540 1543 1546 1548 1551 1553 1554 1555 1556 1557 1558 1558 1559 1560 1560 1561 1563 1563 1564 1564 1565 1565 1566 1567 1567 1568 1568 1569 1570 1571 1571 1571 1572 1572 1573 1574
1508 1509 1511 1512 1514 1517 1518 1520 1523 1528 1531 1534 1537 1541 1543 1546 1549 1551 1553 1555 1556 1557 1558 1559 1559 1560 1560 1561 1562 1563 1564 1564 1566 1566 1566 1567 1568 1568 1569 1569 1569 1571 1571 1572 1572 1572 1572 1573 1574
1509 1508 1510 1512 1514 1517 1517 1519 1522 1528 1532 1535 1538 1541 1544 1546 1549 1551 1553 1554 1556 1557 1558 1559 1560 1561 1561 1562 1564 1565 1565 1566 1567 1567 1567 1567 1568 1568 1569 1570 1570 1571 1571 1571 1572 1572 1572 1573 1573
1506 1506 1509 1511 1513 1516 1517 1519 1522 1528 1531 1534 1537 1540 1543 1546 1548 1550 1552 1554 1555 1557 1558 1559 1561 1561 1562 1563 1564 1565 1566 1567 1568 1568 1568 1568 1568 1569 1569 1570 1571 1571 1571 1572 1572 1572 1573 1573 1573
1505 1507 1508 1511 1512 1513 1513 1516 1521 1527 1529 1532 1536 1539 1542 1544 1547 1549 1551 1552 1554 1556 1557 1558 1560 1561 1562 1563 1564 1565 1566 1567 1568 1568 1569 1569 1569 1569 1569 1570 1570 1570 1571 1571 1572 1572 1572 1572 1572
1506 1504 1507 1509 1510 1512 1512 1514 1519 1525 1527 1529 1533 1536 1539 1542 1545 1547 1549 1551 1552 1554 1555 1557 1558 1560 1561 1563 1564 1565 1566 1567 1567 1568 1568 1568 1569 1569 1569 1569 1569 1570 1570 1570 1570 1570 1570 1570 1570
1499 1502 1506 1508 1509 1512 1512 1513 1516 1521 1525 1527 1529 1533 1536 1539 1543 1545 1547 1548 1550 1552 1553 1555 1557 1559 1560 1562 1563 1564 1565 1566 1567 1567 1567 1568 1568 1568 1568 1569 1568 1568 1569 1569 1569 1569 1569 1569 1569
1503 1506 1507 1510 1511 1512 1512 1512 1513 1518 1521 1524 1526 1530 1533 1536 1540 1542 1544 1546 1547 1549 1551 1553 1555 1557 1559 1560 1562 1563 1564 1565 1566 1566 1566 1567 1567 1567 1567 1567 1567 1567 1567 1567 1567 1567 1568 1568 1568
1504 1505 1507 1510 1512 1511 1512 1514 1513 1515 1519 1522 1524 1527 1529 1533 1536 1538 1541 1543 1545 1547 1549 1551 1553 1555 1557 1559 1560 1561 1562 1563 1564 1564 1565 1565 1565 1566 1565 1565 1565 1566 1566 1566 1565 1565 1565 1566 1566
1507 1502 1505 1510 1513 1512 1513 1517 1510 1509 1514 1517 1520 1523 1525 1529 1532 1535 1537 1540 1542 1544 1546 1548 1550 1552 1554 1556 1558 1560 1561 1562 1562 1562 1563 1563 1563 1563 1563 1563 1563 1563 1564 1563 1563 1563 1563 1563 1564
1501 1504 1506 1508 1510 1511 1511 1515 1507 1505 1510 1511 1514 1518 1521 1524 1528 1531 1534 1536 1539 1542 1544 1546 1548 1550 1552 1554 1555 1557 1558 1559 1560 1560 1560 1560 1561 1561 1561 1561 1561 1560 1560 1560 1560 1560 1560 1560 1561
1505 1508 1509 1508 1507 1521 1512 1516 1511 1501 1505 1505 1509 1513 1517 1521 1524 1528 1531 1533 1536 1538 1541 1543 1545 1547 1549 1551 1552 1554 1555 1556 1557 1557 1558 1558 1559 1559 1558 1558 1558 1557 1557 1557 1557 1557 1557 1557 1557
1504 1510 1522 1525 1524 1519 1507 1513 1507 1498 1500 1504 1507 1510 1514 1517 1521 1524 1527 1530 1532 1535 1538 1540 1542 1544 1546 1548 1549 1551 1552 1553 1554 1555 1555 1556 1557 1557 1556 1556 1555 1555 1554 1554 1554 1554 1554 1554 1554
1500 1500 1513 1524 1522 1512 1512 1511 1499 1497 1501 1504 1506 1509 1511 1514 1517 1521 1524 1527 1530 1532 1535 1537 1539 1541 1543 1545 1547 1548 1550 1551 1552 1552 1553 1553 1554 1554 1554 1553 1552 1552 1551 1551 1551 1551 1551 1551 1551
1499 1496 1490 1501 1505 1510 1505 1502 1498 1497 1500 1502 1504 1507 1509 1512 1515 1518 1522 1524 1527 1530 1532 1535 1537 1539 1541 1542 1544 1545 1547 1548 1549 1549 1550 1550 1550 1551 1551 1550 1550 1549 1548 1548 1548 1548 1548 1548 1549
1490 1491 1498 1503 1517 1520 1510 1506 1500 1496 1497 1499 1502 1504 1507 1510 1513 1517 1520 1523 1525 1528 1530 1532 1534 1537 1539 1540 1542 1543 1544 1545 1545 1546 1547 1547 1547 1548 1548 1548 1547 1547 1546 1546 1546 1546 1545 1546 1547
1496 1495 1494 1497 1499 1511 1515 1505 1487 1491 1494 1497 1500 1503 1506 1509 1512 1515 1518 1521 1523 1526 1529 1531 1533 1534 1536 1537 1539 1540 1541 1542 1543 1544 1544 1544 1545 1545 1546 1545 1545 1545 1545 1545 1545 1545 1545 1545 1545
1486 1487 1492 1502 1507 1502 1501 1499 1487 1491 1494 1497 1499 1503 1506 1509 1512 1515 1517 1520 1522 1525 1527 1529 1531 1532 1534 1535 1537 1538 1539 1540 1541 1542 1542 1543 1543 1543 1543 1543 1543 1543 1544 1544 1544 1544 1544 1544 1543